Date String (YYYY-MM-DD hh:mm:ss) UTC,Instrument flags,Ambient pressure (hPa),Sample flow (lpm),Bypass flow (lpm),Sample temperature (°C),Ambient temperature (°C),ASC tube jacket temperature (°C),LED temperature (°C),Box temperature (°C),Sample RH (%),Span deviation,Mass concentration (μg/m³),Mass concentration (μg/m³),Mass concentration (μg/m³)
DateTimeUTC,F1_M11,P_M11,Q1_M11,Q2_M11,T1_M11,T2_M11,T3_M11,T4_M11,T5_M11,U1_M11,ZSPAN_M11,X0_M11,X2_M11,X1_M11
2023-05-21 15:00:00,,0834.7,5.00,0.00,28.9,27.5,00.0,37.2,30.6,14.6,0003.7,0025.14,0015.21,0014.19
2023-05-21 15:01:00,,0834.9,5.00,0.00,28.9,27.5,00.0,37.2,30.6,15.4,0003.8,0024.59,0015.12,0014.18
2023-05-21 15:02:00,,0834.7,5.01,0.00,29.0,27.5,00.0,37.2,30.6,15.7,0003.8,0024.09,0015.10,0014.17
2023-05-21 15:03:00,,0834.7,5.00,0.00,29.0,27.5,00.0,37.2,30.6,15.1,0003.8,0023.25,0015.08,0014.15
2023-05-21 15:04:00,,0834.7,4.98,0.00,29.0,27.5,00.0,37.2,30.6,15.3,0003.7,0022.70,0015.08,0014.13
2023-05-21 15:05:00,,0834.8,5.00,0.00,29.0,27.5,00.0,37.2,30.7,15.1,0003.7,0022.41,0015.13,0014.15
2023-05-21 15:06:00,,0834.8,5.00,0.00,29.0,27.6,00.0,37.3,30.7,15.6,0003.6,0020.91,0015.13,0014.15
2023-05-21 15:07:00,,0834.7,5.00,0.00,29.0,27.6,00.0,37.3,30.7,15.5,0003.5,0020.06,0015.14,0014.16
2023-05-21 15:08:00,,0834.7,5.01,0.00,29.0,27.6,00.0,37.3,30.7,15.3,0003.5,0019.83,0015.07,0014.14
2023-05-21 15:09:00,,0834.7,5.00,0.00,29.0,27.6,00.0,37.3,30.7,14.8,0003.3,0019.62,0015.01,0014.11
2023-05-21 15:10:00,,0834.7,4.98,0.00,29.1,27.6,00.0,37.3,30.7,14.3,0003.5,0019.63,0015.03,0014.09
2023-05-21 15:11:00,,0834.8,5.00,0.00,29.1,27.6,00.0,37.3,30.7,15.0,0003.6,0020.56,0015.02,0014.04
2023-05-21 15:12:00,,0835.0,5.01,0.00,29.1,27.6,00.0,37.3,30.7,15.2,0003.4,0021.07,0015.04,0014.02
2023-05-21 15:13:00,,0835.0,5.01,0.00,29.1,27.6,00.0,37.3,30.7,14.7,0003.4,0021.00,0015.02,0014.00
2023-05-21 15:14:00,,0834.7,4.98,0.00,29.1,27.6,00.0,37.3,30.7,14.1,0003.5,0021.02,0014.99,0013.97
2023-05-21 15:15:00,,0834.7,5.01,0.00,29.1,27.6,00.0,37.4,30.7,14.0,0003.5,0021.06,0014.94,0013.92
2023-05-21 15:16:00,,0834.8,5.00,0.00,29.1,27.7,00.0,37.4,30.8,14.2,0003.5,0020.83,0014.82,0013.88
2023-05-21 15:17:00,,0834.9,5.01,0.00,29.1,27.7,00.0,37.4,30.8,14.2,0003.7,0020.69,0014.76,0013.86
2023-05-21 15:18:00,,0834.8,5.00,0.00,29.1,27.7,00.0,37.4,30.8,14.2,0003.7,0020.51,0014.68,0013.79
2023-05-21 15:19:00,,0835.0,5.00,0.00,29.2,27.7,00.0,37.4,30.8,14.4,0003.6,0020.48,0014.63,0013.73
2023-05-21 15:20:00,,0835.0,4.99,0.00,29.2,27.7,00.0,37.4,30.8,13.8,0003.7,0020.59,0014.64,0013.72
2023-05-21 15:21:00,,0835.0,4.99,0.00,29.2,27.7,00.0,37.4,30.8,14.7,0003.7,0020.62,0014.60,0013.68
2023-05-21 15:22:00,,0835.1,5.00,0.00,29.2,27.7,00.0,37.4,30.8,15.6,0003.7,0020.01,0014.60,0013.68
2023-05-21 15:23:00,,0835.2,5.01,0.00,29.2,27.7,00.0,37.4,30.8,13.3,0003.7,0019.59,0014.55,0013.63
2023-05-21 15:24:00,,0835.2,5.00,0.00,29.2,27.7,00.0,37.5,30.8,13.7,0003.6,0019.70,0014.54,0013.61
2023-05-21 15:25:00,,0835.2,4.99,0.00,29.2,27.8,00.0,37.5,30.8,14.1,0003.5,0019.57,0014.51,0013.58
2023-05-21 15:26:00,,0834.7,5.00,0.00,29.2,27.8,00.0,37.5,30.9,14.5,0003.6,0019.69,0014.50,0013.58
2023-05-21 15:27:00,,0834.6,5.01,0.00,29.2,27.8,00.0,37.5,30.9,14.8,0003.7,0019.71,0014.50,0013.56
2023-05-21 15:28:00,,0834.8,5.01,0.00,29.3,27.8,00.0,37.5,30.9,12.8,0003.7,0020.08,0014.41,0013.45
2023-05-21 15:29:00,,0834.8,4.99,0.00,29.3,27.8,00.0,37.5,30.9,13.4,0003.7,0020.23,0014.35,0013.41
2023-05-21 15:30:00,,0834.9,5.01,0.00,29.3,27.9,00.0,37.5,30.9,13.9,0003.8,0020.20,0014.30,0013.36
2023-05-21 15:31:00,,0834.7,5.01,0.00,29.3,27.9,00.0,37.5,30.9,14.4,0003.7,0020.80,0014.22,0013.31
2023-05-21 15:32:00,,0834.6,5.00,0.00,29.3,27.9,00.0,37.6,30.9,15.0,0003.6,0021.19,0014.17,0013.26
2023-05-21 15:33:00,,0834.6,4.98,0.00,29.3,27.9,00.0,37.6,31.0,14.3,0003.5,0021.50,0014.16,0013.21
2023-05-21 15:34:00,,0834.6,5.01,0.00,29.3,27.9,00.0,37.6,31.0,15.4,0003.4,0021.38,0014.18,0013.20
2023-05-21 15:35:00,,0834.8,5.01,0.00,29.3,27.9,00.0,37.6,31.0,15.6,0003.5,0021.27,0014.17,0013.20
2023-05-21 15:36:00,,0834.7,4.99,0.00,29.4,27.9,00.0,37.6,31.0,14.3,0003.6,0021.33,0014.19,0013.22
2023-05-21 15:37:00,,0834.7,5.00,0.00,29.4,28.0,00.0,37.6,31.0,14.8,0003.5,0021.32,0014.20,0013.23
2023-05-21 15:38:00,,0834.6,5.01,0.00,29.4,28.0,00.0,37.6,31.0,15.1,0003.4,0021.99,0014.18,0013.20
2023-05-21 15:39:00,,0834.7,5.01,0.00,29.4,28.0,00.0,37.6,31.0,15.5,0003.5,0021.88,0014.23,0013.26
2023-05-21 15:40:00,,0835.0,5.01,0.00,29.4,28.0,00.0,37.7,31.1,14.8,0003.5,0021.61,0014.30,0013.30
2023-05-21 15:41:00,,0835.0,4.99,0.00,29.4,28.0,00.0,37.7,31.1,15.2,0003.4,0022.08,0014.34,0013.33
2023-05-21 15:42:00,,0835.1,4.99,0.00,29.4,28.1,00.0,37.7,31.1,14.3,0003.4,0022.17,0014.36,0013.33
2023-05-21 15:43:00,,0834.9,5.01,0.00,29.5,28.1,00.0,37.7,31.1,12.5,0003.5,0021.74,0014.35,0013.32
2023-05-21 15:44:00,,0834.9,5.01,0.00,29.5,28.1,00.0,37.7,31.1,12.4,0003.5,0021.10,0014.35,0013.34
2023-05-21 15:45:00,,0834.5,5.00,0.00,29.5,28.1,00.0,37.7,31.1,12.7,0003.5,0021.06,0014.34,0013.38
2023-05-21 15:46:00,,0834.6,4.98,0.00,29.5,28.1,00.0,37.7,31.1,12.8,0003.5,0021.15,0014.37,0013.40
2023-05-21 15:47:00,,0834.5,5.01,0.00,29.5,28.1,00.0,37.7,31.1,12.7,0003.4,0021.20,0014.39,0013.44
2023-05-21 15:48:00,,0834.5,5.01,0.00,29.5,28.1,00.0,37.8,31.1,13.3,0003.2,0021.11,0014.38,0013.46
2023-05-21 15:49:00,,0834.5,5.00,0.00,29.5,28.1,00.0,37.8,31.2,13.1,0003.2,0020.28,0014.39,0013.49
2023-05-21 15:50:00,,0834.5,4.98,0.00,29.5,28.1,00.0,37.8,31.2,13.4,0003.2,0020.60,0014.42,0013.49
2023-05-21 15:51:00,,0834.5,5.01,0.00,29.6,28.2,00.0,37.8,31.2,13.6,0003.3,0020.60,0014.47,0013.51
2023-05-21 15:52:00,,0834.5,5.00,0.00,29.6,28.2,00.0,37.8,31.2,12.9,0003.4,0020.50,0014.51,0013.53
2023-05-21 15:53:00,,0834.5,4.98,0.00,29.6,28.2,00.0,37.8,31.2,13.2,0003.5,0019.74,0014.53,0013.56
2023-05-21 15:54:00,,0834.5,5.00,0.00,29.6,28.2,00.0,37.8,31.2,12.7,0003.5,0019.75,0014.62,0013.68
2023-05-21 15:55:00,,0834.5,5.00,0.00,29.6,28.2,00.0,37.8,31.3,13.2,0003.6,0019.70,0014.64,0013.74
2023-05-21 15:56:00,,0834.4,5.00,0.00,29.6,28.2,00.0,37.9,31.2,13.1,0003.6,0019.75,0014.71,0013.82
2023-05-21 15:57:00,,0834.5,4.99,0.00,29.6,28.2,00.0,37.9,31.3,13.9,0003.7,0019.59,0014.69,0013.84
2023-05-21 15:58:00,,0834.4,5.00,0.00,29.7,28.3,00.0,37.9,31.3,13.1,0003.8,0019.66,0014.71,0013.86
2023-05-21 15:59:00,,0834.4,5.00,0.00,29.7,28.3,00.0,37.9,31.3,12.9,0004.0,0019.64,0014.70,0013.88
